This is the latest recevied weather packets stored in our database for station/object EA1FBN. If no packets are shown the sender has not sent any weather packets the latest 1 day(s).
| Time | Temp. | Humidity | Pressure | Rain* | Wind** | Luminosity | Snow |
|---|---|---|---|---|---|---|---|
| 1778007008 | 10.56° C | 73% | 1015.6 hPa | 0 mm | 1.34 m/s, 79° | - | - |
| 1778006708 | 10.56° C | 72% | 1015.6 hPa | 0 mm | 1.34 m/s, 75° | - | - |
| 1778006408 | 10.56° C | 72% | 1015.5 hPa | 0 mm | 1.79 m/s, 104° | - | - |
| 1778006108 | 10.56° C | 73% | 1015.5 hPa | 0 mm | 2.68 m/s, 113° | - | - |
| 1778005808 | 10.56° C | 71% | 1015.5 hPa | 0 mm | 2.68 m/s, 129° | - | - |
| 1778005508 | 10.56° C | 71% | 1015.4 hPa | 0 mm | 2.24 m/s, 127° | - | - |
| 1778005208 | 10.56° C | 73% | 1015.4 hPa | 0 mm | 1.79 m/s, 128° | - | - |
| 1778004908 | 10.56° C | 73% | 1015.3 hPa | 0 mm | 0.89 m/s, 122° | - | - |
| 1778004608 | 10.56° C | 72% | 1015.2 hPa | 0 mm | 0 m/s | - | - |
| 1778004308 | 10.56° C | 72% | 1015.2 hPa | 0 mm | 0 m/s | - | - |
| 1778004008 | 10.56° C | 72% | 1015.2 hPa | 0 mm | 0.45 m/s, 182° | - | - |
| 1778003708 | 10° C | 72% | 1015.1 hPa | 0 mm | 0.89 m/s, 240° | - | - |
| 1778003408 | 10° C | 72% | 1015.1 hPa | 0 mm | 1.34 m/s, 248° | - | - |
| 1778003108 | 10° C | 72% | 1015 hPa | 0 mm | 1.34 m/s, 220° | - | - |
| 1778002809 | 10° C | 71% | 1015 hPa | 0 mm | 1.79 m/s, 236° | - | - |
| 1778002509 | 10° C | 71% | 1014.9 hPa | 0 mm | 2.24 m/s, 244° | - | - |
| 1778002209 | 10° C | 71% | 1014.9 hPa | 0 mm | 3.13 m/s, 239° | - | - |
| 1778001909 | 10° C | 71% | 1014.8 hPa | 0 mm | 3.58 m/s, 221° | - | - |
| 1778001609 | 10.56° C | 71% | 1014.8 hPa | 0 mm | 3.58 m/s, 241° | - | - |
| 1778001309 | 10.56° C | 71% | 1014.8 hPa | 0 mm | 4.02 m/s, 246° | - | - |
| 1778001009 | 10.56° C | 70% | 1014.8 hPa | 0 mm | 3.58 m/s, 263° | - | - |
| 1778000709 | 11.11° C | 71% | 1014.8 hPa | 0 mm | 3.13 m/s, 208° | - | - |
| 1778000409 | 11.11° C | 69% | 1014.7 hPa | 0 mm | 3.58 m/s, 241° | - | - |
| 1778000109 | 11.67° C | 65% | 1014.7 hPa | 0 mm | 3.13 m/s, 243° | - | - |
| 1777999809 | 12.22° C | 62% | 1014.7 hPa | 0 mm | 2.24 m/s, 240° | - | - |
* Rain latest hour (hover to see other rain measurements)
** Current wind speed in m/s (hover to see current wind gust speed)